Location: Scultetus-Sternwarte G�rlitz
(51.1356°N, 14.9514°E)
Time: 04:42:30
(UTC+02:00)

ISS - Visible Passes

Search period start: 28 July 2017 00:00
Search period end: 07 August 2017 00:00
Orbit: 400 x 408 km, 51.6° (Epoch: 28 July)

Date Brightness Start Highest point End Pass type
(mag) Time Alt. Az. Time Alt. Az. Time Alt. Az.
28 Jul -3.4 00:44:24 10° W 00:46:58 51° W 00:46:58 51° W visible
28 Jul -3.9 22:15:35 10° WSW 22:18:50 86° S 22:22:06 10° E visible
28 Jul -3.9 23:52:06 10° W 23:55:22 87° N 23:56:09 49° E visible
29 Jul -1.1 01:28:39 10° W 01:28:46 11° W 01:28:46 11° W visible
29 Jul -3.8 22:59:47 10° W 23:03:02 80° N 23:05:23 18° E visible
30 Jul -2.3 00:36:18 10° W 00:38:01 27° W 00:38:01 27° W visible
30 Jul -3.8 22:07:26 10° W 22:10:42 81° N 22:13:57 10° E visible
30 Jul -4.0 23:43:57 10° W 23:47:12 73° SSW 23:47:17 72° S visible
31 Jul -3.9 22:51:36 10° W 22:54:52 89° SW 22:56:35 26° E visible
01 Aug -1.6 00:28:12 10° W 00:29:13 17° W 00:29:13 17° W visible
01 Aug -3.8 21:59:15 10° W 22:02:31 81° N 22:05:47 10° E visible
01 Aug -3.3 23:35:46 10° W 23:38:31 44° SW 23:38:31 44° SW visible
02 Aug -3.9 22:43:22 10° W 22:46:37 66° SSW 22:47:51 34° SE visible
03 Aug -1.1 00:20:18 10° W 00:20:28 11° W 00:20:28 11° W visible
03 Aug -3.9 21:51:00 10° W 21:54:16 84° SSW 21:57:11 12° ESE visible
03 Aug -2.4 23:27:38 10° W 23:29:49 26° SW 23:29:49 26° SW visible
04 Aug -3.3 22:35:08 10° W 22:38:14 41° SSW 22:39:10 32° SSE visible
05 Aug -3.7 21:42:42 10° W 21:45:55 59° SSW 21:48:33 14° ESE visible
05 Aug -1.6 23:19:48 10° W 23:21:11 15° SW 23:21:11 15° SW visible
06 Aug -2.4 22:26:59 10° W 22:29:42 24° SSW 22:30:35 22° S visible
